This demonstration page uses our WeatherBlox Daily Observations layout. Learn more.

Hourly Observations for June 9, 2017

Temp ( °F °C ) Dew Point ( °F °C ) Humidity (%) Winds ( mph kmh ) Pressure ( in mb ) Visibility ( mi km ) Precip ( " mm )
12:15 am 00:15 Clear 59 15 55 13 88 88 Calm 29.85 1011 10 16.09344 0 0
12:35 am 00:35 Clear 59 15 55 13 88 88 W 3 6 29.83 1010 10 16.09344 0 0
12:55 am 00:55 Clear 61 16 55 13 83 83 Calm 29.83 1010 10 16.09344 0 0
1:15 am 01:15 Clear 59 15 55 13 88 88 Calm 29.83 1010 10 16.09344 0 0
1:35 am 01:35 Clear 59 15 54 12 82 82 Calm 29.83 1010 10 16.09344 0 0
1:55 am 01:55 Clear 55 13 54 12 94 94 WSW 3 6 29.83 1010 10 16.09344 0 0
2:15 am 02:15 Clear 55 13 55 13 100 100 WSW 3 6 29.83 1010 10 16.09344 0 0
2:35 am 02:35 Clear 55 13 54 12 94 94 Calm 29.83 1010 10 16.09344 0 0
2:55 am 02:55 Clear 57 14 55 13 94 94 Calm 29.83 1010 10 16.09344 0 0
3:15 am 03:15 Clear 55 13 55 13 100 100 Calm 29.83 1010 10 16.09344 0 0
3:35 am 03:35 Clear 57 14 54 12 88 88 Calm 29.83 1010 10 16.09344 0 0
3:55 am 03:55 Partly Cloudy 55 13 54 12 94 94 Calm 29.83 1010 10 16.09344 0 0
4:15 am 04:15 Partly Cloudy 54 12 54 12 100 100 Calm 29.83 1010 10 16.09344 0 0
4:35 am 04:35 Mostly Cloudy 55 13 54 12 94 94 Calm 29.83 1010 10 16.09344 0 0
4:55 am 04:55 Partly Cloudy 54 12 54 12 100 100 Calm 29.83 1010 10 16.09344 0 0
5:15 am 05:15 Partly Cloudy 55 13 54 12 94 94 Calm 29.83 1010 10 16.09344 0 0
5:35 am 05:35 Mostly Cloudy 54 12 54 12 100 100 WNW 7 11 29.83 1010 10 16.09344 0 0
5:55 am 05:55 Partly Cloudy 57 14 55 13 94 94 W 6 9 29.83 1010 10 16.09344 0 0
6:15 am 06:15 Sunny 57 14 55 13 94 94 WNW 6 9 29.83 1010 10 16.09344 0 0
6:35 am 06:35 Sunny 59 15 55 13 88 88 W 6 9 29.83 1010 10 16.09344 0 0
6:55 am 06:55 Sunny 61 16 55 13 83 83 W 3 6 29.85 1011 10 16.09344 0 0
7:15 am 07:15 Sunny 63 17 57 14 83 83 WNW 8 13 29.85 1011 10 16.09344 0 0
7:35 am 07:35 Sunny 64 18 57 14 78 78 WNW 9 15 29.85 1011 10 16.09344 0 0
7:55 am 07:55 Sunny 66 19 59 15 78 78 WNW 13 20 29.85 1011 10 16.09344 0 0
8:15 am 08:15 Sunny 68 20 59 15 73 73 WNW 13 20 29.88 1012 10 16.09344 0 0
8:35 am 08:35 Sunny 68 20 59 15 73 73 WNW 13 20 29.88 1012 10 16.09344 0 0
8:55 am 08:55 Sunny 70 21 59 15 69 69 NW 13 20 29.88 1012 10 16.09344 0 0
9:15 am 09:15 Sunny 72 22 59 15 65 65 NW 14 22 29.88 1012 10 16.09344 0 0
9:35 am 09:35 Sunny 72 22 59 15 65 65 NW 14 22 29.88 1012 10 16.09344 0 0
9:55 am 09:55 Sunny 72 22 59 15 65 65 NNW 14 22 29.88 1012 10 16.09344 0 0
10:15 am 10:15 Sunny 73 23 59 15 61 61 NW 9 15 29.88 1012 10 16.09344 0 0
10:35 am 10:35 Sunny 73 23 57 14 57 57 NNW 13 20 29.88 1012 10 16.09344 0 0
10:55 am 10:55 Sunny 73 23 59 15 61 61 WNW 12 19 29.88 1012 10 16.09344 0 0
11:15 am 11:15 Sunny 77 25 59 15 54 54 NW 9 15 29.91 1013 10 16.09344 0 0
11:35 am 11:35 Sunny 77 25 59 15 54 54 NW 12 19 29.88 1012 10 16.09344 0 0
11:55 am 11:55 Partly Cloudy 77 25 59 15 54 54 NNW 12 19 29.91 1013 10 16.09344 0 0
12:15 pm 12:15 Sunny 79 26 59 15 51 51 WNW 13 20 29.91 1013 10 16.09344 0 0
12:35 pm 12:35 Sunny 79 26 59 15 51 51 NW 14 22 29.91 1013 10 16.09344 0 0
12:55 pm 12:55 Partly Cloudy 79 26 57 14 48 48 NW 14 22 29.91 1013 10 16.09344 0 0
1:15 pm 13:15 Mostly Cloudy 77 25 55 13 47 47 WNW 13 20 29.88 1012 10 16.09344 0 0
1:35 pm 13:35 Partly Cloudy 81 27 59 15 48 48 NW 9 15 29.88 1012 10 16.09344 0 0
1:55 pm 13:55 Partly Cloudy 81 27 57 14 45 45 NNW 7 11 29.88 1012 10 16.09344 0 0
2:15 pm 14:15 Partly Cloudy 81 27 57 14 45 45 NW 9 15 29.88 1012 10 16.09344 0 0
2:35 pm 14:35 Sunny 81 27 57 14 45 45 W 13 20 29.88 1012 10 16.09344 0 0
2:55 pm 14:55 Sunny 81 27 59 15 48 48 WNW 10 17 29.88 1012 10 16.09344 0 0
3:15 pm 15:15 Sunny 81 27 59 15 48 48 W 7 11 29.88 1012 10 16.09344 0 0
3:35 pm 15:35 Sunny 81 27 59 15 48 48 WNW 12 19 29.88 1012 10 16.09344 0 0
3:55 pm 15:55 Sunny 81 27 59 15 48 48 WNW 9 15 29.88 1012 10 16.09344 0 0
4:15 pm 16:15 Sunny 81 27 55 13 42 42 WNW 7 11 29.88 1012 10 16.09344 0 0
4:35 pm 16:35 Partly Cloudy 81 27 57 14 45 45 NW 13 20 29.88 1012 10 16.09344 0 0
4:55 pm 16:55 Sunny 81 27 55 13 42 42 NW 10 17 29.88 1012 10 16.09344 0 0
5:15 pm 17:15 Sunny 81 27 55 13 42 42 W 8 13 29.88 1012 10 16.09344 0 0
5:35 pm 17:35 Partly Cloudy 81 27 55 13 42 42 NW 10 17 29.88 1012 10 16.09344 0 0
5:55 pm 17:55 Partly Cloudy 81 27 55 13 42 42 WNW 12 19 29.88 1012 10 16.09344 0 0
6:15 pm 18:15 Partly Cloudy 81 27 55 13 42 42 W 8 13 29.88 1012 10 16.09344 0 0
6:35 pm 18:35 Sunny 81 27 55 13 42 42 WNW 9 15 29.88 1012 10 16.09344 0 0
6:55 pm 18:55 Sunny 81 27 55 13 42 42 WNW 9 15 29.88 1012 10 16.09344 0 0
7:15 pm 19:15 Sunny 79 26 55 13 45 45 WNW 5 7 29.88 1012 10 16.09344 0 0
7:35 pm 19:35 Sunny 79 26 55 13 45 45 W 3 6 29.91 1013 10 16.09344 0 0
7:55 pm 19:55 Sunny 77 25 55 13 47 47 W 5 7 29.91 1013 10 16.09344 0 0
8:15 pm 20:15 Sunny 77 25 55 13 47 47 WSW 3 6 29.91 1013 10 16.09344 0 0
8:35 pm 20:35 Sunny 75 24 55 13 50 50 WSW 3 6 29.91 1013 10 16.09344 0 0
8:55 pm 20:55 Clear 73 23 55 13 53 53 SSW 3 6 29.91 1013 10 16.09344 0 0
9:15 pm 21:15 Clear 72 22 55 13 57 57 SW 5 7 29.94 1014 10 16.09344 0 0
9:35 pm 21:35 Clear 72 22 55 13 57 57 WSW 5 7 29.94 1014 10 16.09344 0 0
9:55 pm 21:55 Clear 68 20 57 14 69 69 SW 5 7 29.94 1014 10 16.09344 0 0
10:15 pm 22:15 Clear 68 20 55 13 64 64 SW 7 11 29.97 1015 10 16.09344 0 0
10:35 pm 22:35 Clear 64 18 57 14 78 78 WSW 6 9 29.97 1015 10 16.09344 0 0
10:55 pm 22:55 Clear 68 20 55 13 64 64 WSW 6 9 29.97 1015 10 16.09344 0 0
11:15 pm 23:15 Clear 66 19 55 13 68 68 WSW 5 7 29.97 1015 10 16.09344 0 0
11:35 pm 23:35 Clear 68 20 55 13 64 64 SW 3 6 29.97 1015 10 16.09344 0 0
11:55 pm 23:55 Clear 68 20 55 13 64 64 SW 5 7 29.97 1015 10 16.09344 0 0

Powered by AerisWeather